Ellensburg, WA
on Saturday, December 8, 2012

Saturday
Previous Day Next Day
Daily Summary
 ActualAverage (KYKM)Record (KYKM)
Temperature
Mean Temperature °F 29°F  
Max Temperature 39°F 37°F 53°F (1991)
Min Temperature 28°F 22°F -7°F (1972)
Degree Days
Heating Degree Days 32 36  
Month to date heating degree days 276  
Since 1 July heating degree days 1809  
Cooling Degree Days 0 0  
Month to date cooling degree days 0  
Year to date cooling degree days 472  
Moisture
Dew Point 27°F   
Average Humidity 76    
Maximum Humidity 86    
Minimum Humidity 64    
Precipitation
Precipitation 0.00 in 0.05 in 0.41 in (1993)
Month to date precipitation 0.39  
Year to date precipitation 7.11  
Snow
Snow 0.00 in 0.30 in 4.80 in (1948)
Month to date snowfall 2.3  
Year to date snowfall 14.5  
Since 1 July snowfall 5.9  
Snow Depth in   
Wind
Wind Speed 3 mph   
Max Wind Speed 9 mph   
Max Gust Speed mph   
Visibility 10 miles   
Events Snow   

Key: T is trace of precipitation, MM is missing value
Source: NWS Daily Summary
Time(PST)TemperatureDew PointHumidity Pressure Visibility Wind DirectionWind SpeedGust SpeedPrecipitationEvents Conditions
12:53 AM 32.0°F 26.1°F 79% 30.08 in 10.0 miles NW 4.6 mph - N/A   Overcast
1:53 AM 30.9°F 25.0°F 79% 30.09 in 10.0 miles Calm Calm - N/A   Scattered Clouds
3:53 AM 30.0°F 25.0°F 82% 30.10 in 10.0 miles NW 3.5 mph - N/A   Clear
4:53 AM 28.0°F 23.0°F 81% 30.12 in 10.0 miles ESE 3.5 mph - N/A   Mostly Cloudy
5:53 AM 28.9°F 24.1°F 82% 30.12 in 10.0 miles East 3.5 mph - N/A   Partly Cloudy
6:53 AM 30.0°F 25.0°F 82% 30.13 in 10.0 miles Calm Calm - N/A   Mostly Cloudy
7:53 AM 28.9°F 23.0°F 78% 30.14 in 10.0 miles Calm Calm - N/A   Partly Cloudy
8:18 AM 30.2°F 24.8°F 80% 30.10 in 10.0 miles Calm Calm - N/A   Overcast
8:45 AM 30.2°F 26.6°F 86% 30.10 in 10.0 miles Calm Calm - N/A   Mostly Cloudy
8:53 AM 32.0°F 26.1°F 79% 30.15 in 10.0 miles Calm Calm - N/A   Mostly Cloudy
9:30 AM 33.8°F 28.4°F 81% 30.13 in 10.0 miles Calm Calm - N/A   Overcast
9:38 AM 33.8°F 28.4°F 81% 30.13 in 10.0 miles Calm Calm - N/A   Overcast
9:53 AM 34.0°F 28.9°F 82% 30.18 in 10.0 miles Calm Calm - N/A   Overcast
10:53 AM 34.0°F 28.0°F 79% 30.19 in 7.0 miles Calm Calm - 0.00 in Snow Light Snow
11:01 AM 33.8°F 28.4°F 81% 30.14 in 9.0 miles Calm Calm - 0.00 in   Scattered Clouds
11:53 AM 37.0°F 28.0°F 70% 30.18 in 10.0 miles Calm Calm - 0.00 in   Overcast
12:53 PM 39.0°F 30.9°F 73% 30.18 in 10.0 miles West 9.2 mph - N/A   Overcast
1:53 PM 39.0°F 30.0°F 70% 30.18 in 10.0 miles WNW 8.1 mph - N/A   Overcast
2:53 PM 39.0°F 30.0°F 70% 30.19 in 10.0 miles NW 9.2 mph - N/A   Overcast
3:53 PM 36.0°F 28.9°F 76% 30.22 in 10.0 miles WNW 4.6 mph - N/A   Mostly Cloudy
4:53 PM 36.0°F 27.0°F 70% 30.24 in 10.0 miles NNW 9.2 mph - N/A   Mostly Cloudy
5:53 PM 35.1°F 26.1°F 70% 30.25 in 10.0 miles NNW 9.2 mph - N/A   Clear
6:53 PM 34.0°F 26.1°F 73% 30.27 in 10.0 miles Calm Calm - N/A   Clear
7:53 PM 36.0°F 25.0°F 64% 30.29 in 10.0 miles WSW 3.5 mph - N/A   Clear
8:53 PM 34.0°F 24.1°F 67% 30.30 in 10.0 miles NNE 5.8 mph - N/A   Clear
9:53 PM 32.0°F 25.0°F 75% 30.31 in 10.0 miles Calm Calm - N/A   Scattered Clouds
10:53 PM 32.0°F 25.0°F 75% 30.32 in 10.0 miles Calm Calm - N/A   Clear
11:53 PM 33.1°F 26.1°F 75% 30.34 in 10.0 miles East 4.6 mph - N/A   Clear
Moon Phase
Dec. 08 Dec. 13 Dec. 20 Dec. 28 Jan. 04
Sunrise:07:35 AM (PST) Moon Rise:01:49 AM (PST)12/8
Sunset:04:12 PM (PST) Moon Set:01:00 PM (PST)12/8

Copyright © 2014 The Weather Underground, Inc.